Flag Island, MN

1:56 PM CDT on May 20, 2018 (GMT -0500)
Flag Island

Weather History for KFGN - July, 2013

Change the Weather History Date:

Friday, July 5, 2013

  Actual Average Record
Temperature  
Mean Temperature 74 °F -  
Max Temperature 80 °F 69 °F 84 °F (2017)
Min Temperature 68 °F 56 °F 51 °F (2001)
Cooling Degree Days 9    
Growing Degree Days 24 (Base 50)    
Moisture  
Dew Point 65 °F    
Average Humidity 74    
Maximum Humidity 83    
Minimum Humidity 53    
Precipitation  
Precipitation 0.31 in - - ()
Sea Level Pressure  
Sea Level Pressure 29.70 in    
Wind  
Wind Speed 4 mph (SSW)    
Max Wind Speed 16 mph    
Max Gust Speed 21 mph    
Visibility 3 miles    
Events Rain , Thunderstorm    
Averages and records for this station are not official NWS values.
T = Trace of Precipitation, MM = Missing Value Source: NWS Daily Summary

Daily Weather History Graph

Daily Weather History Graph

Search for Another Location

Airport or City:

Astronomy

Jul. 05, 2013 Rise Set
Actual Time 5:21 AM CDT 9:27 PM CDT
Civil Twilight 4:38 AM CDT 10:09 PM CDT
Nautical Twilight 3:38 AM CDT 11:09 PM CDT
Astronomical Twilight 1:56 AM CDT 1:17 AM CDT
Moon 3:27 AM CDT (7/5) 7:17 PM CDT (7/5)
Length of Visible Light 17h 31m
Length of Day
16h 06m
Waning Crescent, 6% of the Moon is Illuminated
Jul 5
Waning Crescent
Jul 8
New
Jul 15
First Quarter
Jul 22
Full
Jul 29
Last Quarter

Hourly Weather History & Observations

Time (CDT) Temp. Heat Index Dew Point Humidity Pressure Visibility Wind Dir Wind Speed Gust Speed Precip Events Conditions
12:13 AM 73.4 °F - 66.2 °F 78% 29.70 in 1.0 mi South 4.6 mph - N/A   Haze
12:33 AM 73.4 °F - 66.2 °F 78% 29.69 in 1.5 mi South 5.8 mph - N/A   Haze
12:54 AM 71.6 °F - 66.2 °F 83% 29.70 in 2.0 mi South 4.6 mph - N/A   Haze
1:13 AM 71.6 °F - 66.2 °F 83% 29.69 in 2.0 mi South 4.6 mph - N/A   Haze
1:33 AM 71.6 °F - 66.2 °F 83% 29.69 in 2.0 mi South 5.8 mph - N/A   Haze
1:53 AM 71.6 °F - 66.2 °F 83% 29.69 in 2.0 mi South 4.6 mph - N/A   Haze
2:13 AM 71.6 °F - 66.2 °F 83% 29.69 in 2.0 mi South 4.6 mph - N/A   Haze
2:34 AM 71.6 °F - 66.2 °F 83% 29.70 in 2.5 mi South 3.5 mph - N/A   Clear
2:53 AM 71.6 °F - 66.2 °F 83% 29.70 in 3.0 mi Calm Calm - N/A   Clear
3:13 AM 71.6 °F - 64.4 °F 78% 29.70 in 1.8 mi Calm Calm - N/A   Haze
3:34 AM 71.6 °F - 64.4 °F 78% 29.69 in 2.5 mi Calm Calm - N/A   Haze
3:53 AM 71.6 °F - 64.4 °F 78% 29.69 in 1.8 mi South 3.5 mph - N/A   Haze
4:13 AM 71.6 °F - 64.4 °F 78% 29.69 in 1.5 mi South 3.5 mph - N/A   Haze
4:34 AM 69.8 °F - 64.4 °F 83% 29.69 in 1.5 mi Calm Calm - N/A   Haze
4:53 AM 69.8 °F - 64.4 °F 83% 29.68 in 1.5 mi Calm Calm - N/A   Haze
5:13 AM 69.8 °F - 64.4 °F 83% 29.68 in 2.5 mi South 3.5 mph - N/A   Haze
5:34 AM 69.8 °F - 64.4 °F 83% 29.68 in 2.0 mi South 3.5 mph - N/A   Haze
5:53 AM 71.6 °F - 64.4 °F 78% 29.68 in 2.0 mi Calm Calm - N/A   Haze
6:13 AM 71.6 °F - 64.4 °F 78% 29.68 in - Calm Calm - N/A   Clear
6:34 AM 69.8 °F - 62.6 °F 78% 29.69 in 1.2 mi Calm Calm - N/A   Haze
6:53 AM 69.8 °F - 62.6 °F 78% 29.69 in 1.8 mi Calm Calm - N/A   Haze
7:13 AM 69.8 °F - 62.6 °F 78% 29.70 in 1.5 mi Calm Calm - N/A Thunderstorm Unknown
7:34 AM 69.8 °F - 62.6 °F 78% 29.71 in 1.5 mi SSW 3.5 mph - N/A   Haze
7:53 AM 68.0 °F - 62.6 °F 83% 29.70 in - Calm Calm - 0.13 in   Overcast
8:14 AM 68.0 °F - 62.6 °F 83% 29.69 in - ENE 3.5 mph - N/A   Unknown
8:34 AM 69.8 °F - - N/A% 29.69 in - SSE 8.1 mph - N/A   Unknown
8:53 AM 71.6 °F - 64.4 °F 78% 29.69 in 2.0 mi SE 5.8 mph - N/A   Haze
9:13 AM 71.6 °F - 64.4 °F 78% 29.69 in 4.0 mi SSE 8.1 mph - N/A   Haze
9:34 AM 73.4 °F - 66.2 °F 78% 29.70 in 2.5 mi SSE 8.1 mph - N/A   Haze
9:53 AM 73.4 °F - 66.2 °F 78% 29.70 in 1.8 mi South 6.9 mph - N/A   Haze
10:13 AM 73.4 °F - 66.2 °F 78% 29.70 in 1.2 mi South 4.6 mph - N/A   Haze
10:34 AM 73.4 °F - 66.2 °F 78% 29.70 in 1.5 mi South 4.6 mph - N/A   Haze
10:53 AM 73.4 °F - 66.2 °F 78% 29.70 in 1.5 mi Calm Calm - N/A   Haze
11:13 AM 73.4 °F - 66.2 °F 78% 29.71 in 2.5 mi Calm Calm - N/A   Haze
11:34 AM 73.4 °F - 64.4 °F 73% 29.71 in 2.5 mi SSE 3.5 mph - N/A   Haze
11:53 AM 73.4 °F - 66.2 °F 78% 29.70 in 3.0 mi SSE 4.6 mph - N/A   Haze
12:13 PM 73.4 °F - 64.4 °F 73% 29.70 in 3.0 mi SSE 3.5 mph - N/A   Haze
12:33 PM 73.4 °F - 66.2 °F 78% 29.69 in 4.0 mi SSE 5.8 mph - N/A   Haze
12:53 PM 75.2 °F - 66.2 °F 73% 29.69 in 4.0 mi SSE 5.8 mph - N/A   Haze
1:14 PM 75.2 °F - 66.2 °F 73% 29.69 in 5.0 mi SSE 9.2 mph - N/A   Haze
1:33 PM 75.2 °F - 66.2 °F 73% 29.68 in 5.0 mi SSE 9.2 mph - N/A   Haze
1:53 PM 75.2 °F - 68.0 °F 78% 29.68 in 5.0 mi SE 8.1 mph - N/A   Haze
2:14 PM 75.2 °F - 69.8 °F 83% 29.67 in 4.0 mi SSE 9.2 mph - N/A   Haze
2:33 PM 75.2 °F - 68.0 °F 78% 29.67 in 5.0 mi SSE 9.2 mph - N/A   Haze
2:53 PM 73.4 °F - 64.4 °F 73% 29.69 in 0.8 mi SW 16.1 mph 20.7 mph 0.13 in Rain , Thunderstorm Thunderstorms and Rain
3:14 PM 75.2 °F - 64.4 °F 69% 29.69 in 1.5 mi West 8.1 mph - 0.01 in Thunderstorm Haze
3:33 PM 73.4 °F - 66.2 °F 78% 29.69 in 1.0 mi NW 8.1 mph 11.5 mph 0.02 in Thunderstorm Unknown
3:53 PM 71.6 °F - 64.4 °F 78% 29.69 in 2.5 mi NNW 6.9 mph - 0.05 in Rain Light Rain
4:14 PM 73.4 °F - 64.4 °F 73% 29.69 in 7.0 mi Calm Calm - N/A   Scattered Clouds
4:33 PM 75.2 °F - 68.0 °F 78% 29.69 in 5.0 mi Calm Calm - N/A   Haze
4:53 PM 75.2 °F - 66.2 °F 73% 29.69 in 4.0 mi Calm Calm - N/A   Haze
5:14 PM 75.2 °F - 66.2 °F 73% 29.69 in 5.0 mi Calm Calm - N/A   Haze
5:33 PM 77.0 °F - 69.8 °F 78% 29.69 in 5.0 mi Calm Calm - N/A   Haze
5:53 PM 77.0 °F - 69.8 °F 78% 29.69 in 5.0 mi Calm Calm - N/A   Haze
6:14 PM 77.0 °F - 66.2 °F 69% 29.70 in 7.0 mi Calm Calm - N/A   Clear
6:33 PM 77.0 °F - 68.0 °F 74% 29.70 in 5.0 mi Calm Calm - N/A   Haze
6:53 PM 78.8 °F - 66.2 °F 65% 29.70 in 5.0 mi Calm Calm - N/A   Haze
7:14 PM 77.0 °F - 69.8 °F 78% 29.69 in 5.0 mi Calm Calm - N/A   Haze
7:33 PM 77.0 °F - 71.6 °F 83% 29.70 in 4.0 mi Calm Calm - N/A   Haze
7:53 PM 78.8 °F - 66.2 °F 65% 29.70 in 3.0 mi West 4.6 mph - N/A   Haze
8:14 PM 80.6 °F 82.7 °F 66.2 °F 61% 29.70 in 3.0 mi West 4.6 mph - N/A   Haze
8:33 PM 78.8 °F - 64.4 °F 61% 29.70 in 3.0 mi West 6.9 mph - N/A   Haze
8:53 PM 78.8 °F - 62.6 °F 57% 29.71 in 2.5 mi West 5.8 mph - N/A   Haze
9:14 PM 77.0 °F - 62.6 °F 61% 29.71 in 1.8 mi West 8.1 mph - N/A   Haze
9:34 PM 77.0 °F - 59.0 °F 54% 29.72 in 2.0 mi WNW 11.5 mph - N/A   Haze
9:53 PM 75.2 °F - 57.2 °F 53% 29.73 in 1.5 mi West 9.2 mph - N/A   Haze
10:14 PM 73.4 °F - 59.0 °F 61% 29.74 in 0.2 mi WNW 5.8 mph - N/A   Haze
10:34 PM 73.4 °F - 57.2 °F 57% 29.74 in 0.2 mi WNW 6.9 mph - N/A   Haze
10:53 PM 73.4 °F - 57.2 °F 57% 29.74 in - WNW 5.8 mph - N/A   Clear
11:14 PM 73.4 °F - 59.0 °F 61% 29.74 in 0.2 mi WNW 4.6 mph - N/A   Haze
11:33 PM 71.6 °F - 57.2 °F 60% 29.75 in 0.5 mi WNW 8.1 mph - N/A   Haze
11:53 PM 71.6 °F - 55.4 °F 57% 29.76 in 0.5 mi WNW 5.8 mph - N/A   Haze